Location: Casteau
(50.5142°N, 4.0161°E)
Time: 20:41:52
(UTC+00:00)

Tiros 1 - Pass Details

Date: 09 August 2021
Orbit: 630 x 663 km, 48.4° (Epoch: 28 September)

Event Time Altitude Azimuth Distance (km) Brightness Sun altitude
Rises 16:23:21 0° 251° (WSW) 2,990 11.8 25.6°
Reaches altitude 10° 16:25:43 10° 248° (WSW) 2,077 11.3 25.3°
Maximum altitude 16:30:27 62° 169° (SSE) 745 7.8 24.5°
Drops below altitude 10° 16:35:10 10° 89° (E) 2,067 9.3 23.8°
Sets 16:37:31 0° 86° (E) 2,974 10.0 23.4°
